Track SENTINEL 1A now! 10-day predictions SENTINEL 1A is classified as:
1 39634U 14016A 24280.51058966 .00001414 00000-0 30961-3 0 9995 2 39634 98.1830 286.0089 0001372 87.2407 272.8950 14.59193982559799